Overview Statistics Trail Chart Weather Telemetry Raw packets
 

This is the latest recevied weather packets stored in our database for station/object K7SKM. If no packets are shown the sender has not sent any weather packets the latest 10 day(s).

<< 58 59 60 61 62 63 64 >>
Time Temp. Humidity Pressure Rain* Wind** Luminosity Snow
1788280454 17.78° C 72% 1015.2 hPa 0 mm - 153 W/m² -
1788280149 17.22° C 72% 1015.3 hPa 0 mm - 134 W/m² -
1788279848 17.22° C 74% 1015.2 hPa 0 mm - 166 W/m² -
1788279542 16.67° C 74% 1015.3 hPa 0 mm - 111 W/m² -
1788279241 16.67° C 76% 1015.1 hPa 0 mm - 113 W/m² -
1788278936 16.11° C 76% 1015.2 hPa 0 mm - 120 W/m² -
1788278633 16.11° C 77% 1015.3 hPa 0 mm - 107 W/m² -
1788278332 16.11° C 77% 1015.3 hPa 0 mm - 105 W/m² -
1788278027 15.56° C 78% 1015.2 hPa 0 mm - 75 W/m² -
1788277724 16.11° C 78% 1015.3 hPa 0 mm - 63 W/m² -
1788277422 15.56° C 79% 1015.4 hPa 0 mm - 84 W/m² -
1788277117 15° C 80% 1015.3 hPa 0 mm - 79 W/m² -
1788276812 15° C 81% 1015.2 hPa 0 mm - 64 W/m² -
1788276510 14.44° C 81% 1015.2 hPa 0 mm - 51 W/m² -
1788276210 14.44° C 82% 1015.3 hPa 0 mm - 55 W/m² -
1788275906 13.89° C 82% 1015.4 hPa 0 mm - 42 W/m² -
1788275600 13.89° C 83% 1015.3 hPa 0 mm - 40 W/m² -
1788275300 13.89° C 83% 1015.5 hPa 0 mm - 42 W/m² -
1788274997 13.33° C 84% 1015.4 hPa 0 mm - 42 W/m² -
1788274690 13.33° C 84% 1015.2 hPa 0 mm - 40 W/m² -
1788274389 13.33° C 85% 1015.1 hPa 0 mm - 37 W/m² -
1788274085 12.78° C 85% 1015.4 hPa 0 mm - 37 W/m² -
1788273781 12.78° C 85% 1015.2 hPa 0 mm - 27 W/m² -
1788273476 12.78° C 86% 1015.4 hPa 0 mm - 24 W/m² -
1788273172 12.78° C 86% 1015.1 hPa 0 mm - 18 W/m² -

* Rain latest hour (hover to see other rain measurements)
** Current wind speed in m/s (hover to see current wind gust speed)